Location: Passau
(48.5830°N, 13.4830°E)
Time: 05:58:54
(UTC+02:00)

Vanguard 1 - Pass Details

Date: 05 August 2021
Orbit: 652 x 3831 km, 34.3° (Epoch: 16 September)

Event Time Altitude Azimuth Distance (km) Brightness Sun altitude
Rises 16:35:01 0° 252° (WSW) 4,079 14.2 38.1°
Reaches altitude 10° 16:40:25 10° 219° (SW) 3,753 14.0 37.3°
Maximum altitude 16:43:04 11° 203° (SSW) 3,963 13.8 36.9°
Drops below altitude 10° 16:46:07 10° 188° (S) 4,428 13.8 36.4°
Sets 16:54:55 0° 161° (SSE) 6,382 14.2 35.0°
